Tracking 25689 objects as of 7-Jul-2022
HD Live streaming from Space Station
objects crossing your sky now

FENGYUN 1C DEB

Track FENGYUN 1C DEB now!
10-day predictions


NORAD ID: 35222
Int'l Code: 1999-025DQE
Perigee: 477.9 km
Apogee: 640.9 km
Inclination: 99.0 °
Period: 95.7 minutes
Semi major axis: 6930 km
RCS: 0.0015 m2 (small)
Launch date: May 10, 1999
Source: People's Republic of China (PRC)
Launch site: Taiyaun Space Center, China (TSC)

Note: This is SATELLITE DEBRIS
aabbcc
Your satellite tracking list
Your tracking list is empty




NASA's NSSDC Master Catalog

Two Line Element Set (TLE):
1 35222U 99025DQE 22186.97657889  .00005942  00000-0  36675-3 0  9997
2 35222  98.9867 189.1752 0117621 169.5616 190.8090 15.04747090781097
Source of the keplerian elements: AFSPC